Weather in Roermond

Netherlands     51°11′32″N   5°59′33″E
temp.,
°C
wind,
m/s
gust,
m/s
humid.,
%
clouds,
%
prec.,
mm/h
press.,
hPa
HPBL,
m
26 june, sun
sun2623:00+16wnw1297100 1.4 101259
02:00+16s369699 2.1 1013201
05:00+15wsw369798 0.0 1014198
08:00+16sw358973 0.0 1015453
11:00+19sw4564100 0.1 10161178
14:00+21s2356100 0.1 10161449
17:00+19sse4474100 0.4 1016616
20:00+19sse226975 0.4 1015622
27 june, mon
mon2723:00+15ese3494100 0.0 101674
02:00+15ese239398 0.4 101597
05:00+14sw239698 0.0 101564
08:00+16wsw2486100 0.0 1016232
11:00+20wsw456593 0.0 1017829
14:00+21w675377 0.1 10181593
17:00+20w355591 0.1 10181416
20:00+20sse2465100 0.4 1019378
28 june, tue
tue2823:00+14ssw22840 0.2 102015
02:00+13n229016 0.2 102118
05:00+12wnw119185 0.0 102211
08:00+15sw117797 0.0 1022181
11:00+21sse11552 0.0 1021860
14:00+24s13420 0.0 10192022
17:00+26ese343844 0.0 10182229
20:00+23e355362 0.0 1017172
29 june, wed
wed2923:00+18ese22540 0.0 101712
02:00+16se226312 0.0 101728
05:00+15ssw33770 0.0 101636
08:00+19ssw23650 0.0 1016171
11:00+25sw234582 0.0 10161001
14:00+27w233693 0.0 10152042
17:00+29n133213 0.0 10142588
20:00+27ne114917 0.0 101351
30 june, thu
thu3023:00+20ese11615 0.0 101311
02:00+18sse22780 0.0 101328
05:00+17sse22680 0.0 101213
08:00+21sse12610 0.0 1012148
11:00+27ese33545 0.0 1011882
14:00+30ese464523 0.0 10102154
17:00+31se66387 0.0 10081866
20:00+28ese595193 0.0 1006422